Regional Weather Roundup
Issued by NWS Lake Charles, LA

Current Version | Previous Version | Text Only | Print | Product List | Glossary On
Versions: 1 2 3 4 5 6 7 8 9 10 11 12 13 14 15 16 17 18 19 20 21 22 23 24 25 26 27 28
000
ASUS44 KLCH 041010
RWRLCH
REGIONAL WEATHER ROUNDUP
NATIONAL WEATHER SERVICE LAKE CHARLES LA
500 AM CDT WED AUG 04 2021

Note: "fair" indicates few or no clouds below 12,000 feet with no
significant weather and/or obstructions to visibility.


ACROSS SOUTHEAST TEXAS

CITY           SKY/WX    TMP DP  RH WIND       PRES   REMARKS
BEAUMONT       MOCLDY    76  76 100 N7        29.92S
BEAUMONT CITY  FAIR      77  75  96 N5        29.93S
ORANGE         MOSUNNY   76  74  94 N3        29.95S FOG
JASPER         CLEAR     73  73 100 CALM      29.96R
$$

ACROSS CENTRAL LOUISIANA

CITY           SKY/WX    TMP DP  RH WIND       PRES   REMARKS
LEESVILLE      NOT AVBL
FULLERTON      FAIR      73  70  90 CALM      29.94S
ALEXANDRIA INT CLEAR     73  70  90 NE5       29.95R
ESLER FIELD    CLEAR     72  70  93 CALM      29.96S
DERIDDER       NOT AVBL
OAKDALE        SUNNY     73  70  88 CALM      29.95S
OPELOUSAS      FAIR      73  72  95 N5        29.94S
$$

ACROSS SOUTHWEST AND SOUTH CENTRAL LOUISIANA

CITY           SKY/WX    TMP DP  RH WIND       PRES   REMARKS
DEQUINCY         N/A     74  73  96 CALM      29.95S
SULPHUR        CLOUDY    77  75  95 NE7       29.94S
LAKE CHARLES   CLOUDY    76  76 100 NE8       29.93S FOG
CHENNAULT INT  CLOUDY    75  73  93 NE5       29.94S
JENNINGS       CLOUDY    74  74 100 N5        29.94R
LAFAYETTE      CLOUDY    75  74  96 N5        29.92S
NEW IBERIA     MOCLDY    76  76 100 CALM      29.92S
ABBEVILLE      CLOUDY    76  73  92 CALM      29.93R
PATTERSON      CLOUDY    77  77 100 NE5       29.92R
SALT POINT       N/A     77  76  96 CALM      29.90R
$$

SELECTED SITES ACROSS THE REGION

CITY           SKY/WX    TMP DP  RH WIND       PRES   REMARKS
HOUSTON BUSH   MOCLDY    79  75  87 N6        29.93S
HOUSTON HOBBY  CLOUDY    80  74  81 SE3       29.92S
GALVESTON      MOCLDY    81  76  84 NW3       29.92S
COLLEGE STAT   PTCLDY    77  72  84 NE7       29.95F
CONROE         PTCLDY    76  73  91 CALM      29.95F
HUNTSVILLE     CLEAR     76  72  87 NE3       29.97S FOG
LUFKIN         CLEAR     74  71  91 NE3       29.97S
SHREVEPORT     CLEAR     73  66  78 E5        30.00S
MONROE         CLEAR     71  68  90 N7        30.00S
NATCHEZ MS     CLEAR     71  69  93 NE3       29.98S
BATON ROUGE    CLOUDY    73  73 100 CALM      29.93S
N.O. INTL ARPT MOCLDY    80  74  81 CALM      29.91S
SLIDELL        CLOUDY    77  74  90 NE3       29.92S
$$

MARINE REPORTS

STATION/POSITION TIME  SKY/WX   TEMP    WIND        PRES    VSBY
                                AIR SEA DIR/SP/G
                 (UTC)          (F)     (DEG/KT/KT) (MB)    (MI)
BUOY 30 S HIGH I 0950            82 86  320/  8/ 10 1012.7F
WVE H/P(F/S)=  1/ 5

SEA RIM ST PARK  1000            78      20/  6/  7 1013.3F
PORT ARTHUR      0930            78 86   40/  3/  4 1013.3R
TEXAS POINT      0930            77 86   30/  7/  8 1012.2R
CALCASIEU PASS   0930            77 85   60/  5/  7 1011.4F
LK CHARLES BEACH 0930            76 85              1013.9R
MARSH ISLAND     NOT AVBL
FRESH WATER LOCK 0930                   340/  4/  5   N/A
AMERADA PASS     0930            77 86   70/  2/  4 1012.8R
$$



USA.gov is the U.S. government's official web portal to all federal, state and local government web resources and services.